Regional Weather Roundup
Issued by NWS

Home | Current Version | Previous Version | Graphics & Text | Print | Product List | Glossary On
Versions: 1 2 3 4 5 6 7 8 9 10 11 12 13 14 15 16 17 18 19 20 21 22 23 24 25 26 27 28 29 30 31 32 33 34 35 36 37 38 39 40 41 42 43 44 45 46 47 48 49 50
000
ASUS45 KTFX 291710
RWRMT
MONTANA REGIONAL WEATHER ROUNDUP
NATIONAL WEATHER SERVICE GREAT FALLS MT
1100 AM MDT WED MAR 29 2017

NOTE: "FAIR" INDICATES FEW OR NO CLOUDS BELOW 12000 FEET WITH NO
SIGNIFICANT WEATHER AND/OR OBSTRUCTIONS TO VISIBILITY.

MTZ001>007-043-291800-
WEST OF THE DIVIDE

CITY           SKY/WX    TMP DP  RH WIND       PRES   REMARKS
KALISPELL      LGT RAIN  40  37  89 S13       30.00F
MISSOULA       LGT RAIN  43  36  76 SE7       30.04F
BUTTE          CLOUDY    42  23  46 CALM      30.05F
MULLAN PASS    SNOW      32  30  92 VRB7      29.93F VSB 1/4 WCI  26
ANACONDA         N/A     43  27  52 S15G23    30.03F
DEER LODGE       N/A     46  27  46 S9G17     30.05F
EUREKA           N/A     39  36  87 SE10      29.98F
HAMILTON         N/A     46  30  53 S20       30.03S
PLAINS           N/A     41  33  73 CALM      30.01F
RONAN            N/A     43  38  82 SE6       30.04F
THOMPSON FALLS   N/A     41  37  85 NE8       30.04F
$$

MTZ008-052>055-291800-
SOUTHWEST MONTANA

CITY           SKY/WX    TMP DP  RH WIND       PRES   REMARKS
BOZEMAN        CLOUDY    47  29  49 NW5       30.07F
DILLON         CLOUDY    42  24  49 SW9       30.07F
W YELLOWSTONE  CLOUDY    32  25  74 S16       30.19S WCI  21
ENNIS          MOSUNNY   43  27  52 S22G35    30.14R
THREE FORKS      N/A     42 -25   5 CALM      30.06F
TWIN BRIDGES     N/A     43  24  47 S9        30.05F
$$

MTZ009-010-012-014-046-048-049-054-291800-
EAST SLOPES AND CENTRAL MONTANA

CITY           SKY/WX    TMP DP  RH WIND       PRES   REMARKS
CUT BANK       CLOUDY    43  28  55 NW8       29.96S
GREAT FALLS    CLOUDY    47  28  47 SW17      30.00F
MALMSTROM AFB  CLOUDY    47  29  48 SW21G28   30.00F
HELENA         CLOUDY    48  29  47 E7        30.04F
BOWMANS CRNR   CLOUDY    41  28  58 S17       29.98F
CHOTEAU          N/A     45  28  53 SW15G22   29.99F
CONRAD           N/A     45  32  60 S13       29.99F
FAIRFIELD      CLOUDY    44  28  54 SW12      29.99
POWER          PTSUNNY   45  28  50 SW17      29.99F
RAYNESFORD       N/A     48  27  43 W15       30.01F
$$

MTZ011-013-016-021-045-047-050-051-291800-
NORTH CENTRAL MONTANA

CITY           SKY/WX    TMP DP  RH WIND       PRES   REMARKS
HAVRE          CLOUDY    52  29  41 W20       29.98F
LEWISTOWN      CLOUDY    47  26  44 S5        30.03F
N BAR RANCH      N/A     48  23  37 NW6       30.05F
CHINOOK          N/A     54  27  35 W18       29.99S
$$

MTZ017>020-022>027-061-062-291800-
NORTHEAST MONTANA

CITY           SKY/WX    TMP DP  RH WIND       PRES   REMARKS
GLASGOW        SUNNY     55  28  35 W14       29.99F
JORDAN           N/A     55  29  36 W16       30.02F
SIDNEY         MOSUNNY   51  44  77 S9        30.00F
WOLF POINT     SUNNY     55  33  43 W12       30.00F
MALTA          SUNNY     52  30  43 W15       29.98F
PLENTYWOOD       N/A     52  34  50 SW10      29.96F
POPLAR           N/A     50  34  53 SW10      30.00F
SCOBEY           N/A     53  26  35 SW17      29.94F
$$

MTZ028>42-056>058-291800-
SOUTHCENTRAL AND SOUTHEAST MONTANA

CITY           SKY/WX    TMP DP  RH WIND       PRES   REMARKS
BAKER          SUNNY     55  33  43 W13       30.04F
BILLINGS       PTSUNNY   49  35  58 SW9       30.06F
LIVINGSTON     PTSUNNY   50  27  40 SW21      30.05F
MILES CITY     SUNNY     51  35  54 SW9       30.06S
BIG TIMBER     MOSUNNY   50  27  40 W22       30.07S
EKALAKA          N/A     52  33  48 SW10      30.03F
FORSYTH          N/A     50  34  53 CALM      30.06F
LAUREL           N/A     49  28  44 SW2       30.04F
$$

REGIONAL REPORTS...DAKOTAS

CITY           SKY/WX    TMP DP  RH WIND       PRES   REMARKS
WILLISTON      SUNNY     51  41  68 S12       29.99F
MINOT          CLOUDY    54  43  66 S12       30.02F
DICKINSON      MOSUNNY   48  42  80 S12       30.04F
BEACH            N/A     55  36  47 SW14G20   30.05F
TIOGA            N/A     48  48 100 SW13      30.00F
WATFORD CITY     N/A     52  45  76 SW12      30.01F
BISMARCK       SUNNY     57  41  55 S7        30.10F
GRAND FORKS    CLOUDY    50  41  71 S9        30.14F
FARGO          CLOUDY    55  38  52 S13       30.15F
BUFFALO SD       N/A     50  43  77 SW6       30.01F
RAPID CITY     PTSUNNY   50  42  74 NE6       30.09S
$$

REGIONAL REPORTS...WYOMING/IDAHO/WASHINGTON

CITY           SKY/WX    TMP DP  RH WIND       PRES   REMARKS
GILLETTE         N/A     51  31  46 W5        30.08S
SHERIDAN       SUNNY     50  37  61 NE6       30.09S
BUFFALO WY     SUNNY     54  24  31 SE9       30.09F
CODY           SUNNY     51  23  33 SW14G21   30.08F
YELLOWSTONE LA   N/A     32  24  72 VRB5      30.17F
IDAHO FALLS    MOSUNNY   45  32  60 SW20      30.22S
SALMON         CLOUDY    43  27  52 N7        30.10F
BOISE          CLOUDY    52  32  46 E17       30.15F
SPOKANE        LGT RAIN  41  40  96 SE6       29.95S FOG
$$

REGIONAL REPORTS...ALBERTA

CITY           SKY/WX    TMP DP  RH WIND       PRES   REMARKS
EDMONTON       FOG       32  30  93 W3        29.85F VSB 1/8
CALGARY        CLOUDY    45  19  36 S3        29.85F
LETHBRIDGE     CLOUDY    50  28  43 SW16      29.91F
MEDICINE HAT   CLOUDY    54  28  37 W17       29.90F
WATERTON GATE    N/A     43  28  56 SW16G23     N/A
CARDSTON         N/A     43  28  56 S5          N/A
MILK RIVER       N/A     48  28  46 W15         N/A
$$

REGIONAL REPORTS...SASKATCHEWAN

CITY           SKY/WX    TMP DP  RH WIND       PRES   REMARKS
SWIFT CURRENT  MOSUNNY   50  27  40 W14G21    29.86F
REGINA         PTSUNNY   50  32  50 SW10      29.89F
SASKATOON      MOSUNNY   45  32  61 SW5       29.84S
CYPRESS HILLS    N/A     45  19  36 W9          N/A
VAL MARIE        N/A     52  25  35 W16G22      N/A
ROCKGLEN         N/A     50  27  40 SW20        N/A
ASSINIBOIA       N/A     32  32 100 S2          N/A
$$



USA.gov is the U.S. government's official web portal to all federal, state and local government web resources and services.